Regional Weather Roundup
Issued by NWS Sterling, VA

Home | Current Version | Previous Version | Graphics & Text | Print | Product List | Glossary On
Versions: 1 2 3 4 5 6 7 8 9 10 11 12 13 14 15 16 17 18 19 20 21 22 23 24 25 26 27 28
000
ASUS41 KLWX 270210
RWRLWX

REGIONAL WEATHER ROUNDUP
NATIONAL WEATHER SERVICE BALTIMORE MD/WASHINGTON DC
1000 PM EDT THU MAY 26 2016

Note: "FAIR" indicates few or no clouds below 12,000 feet
with no significant weather and/or obstructions to visibility.
 TC=TEMPERATURE CELSIUS

 * =Non NWS site. Station does not report precipitation (e.g. rain,
    snow, etc.), thunder, or fog.

DCZ001-MDZ009-015-VAZ040>042-051-053>054-270300-
WASHINGTON METRO

CITY           SKY/WX    TMP DP  RH WIND       PRES   REMARKS
WASHINGTON NAT FAIR      76  65  68 S9        30.03R
DULLES         FAIR      79  63  57 S6        30.03R
ANDREWS AFB    PTCLDY    75  63  66 S8        30.04R
FT BELVOIR     FAIR      71  66  85 CALM      30.03R
QUANTICO       FAIR      76  66  71 SW7       30.04R
LEESBURG*      FAIR      79  68  69 SW12      30.04R
MANASSAS*      CLEAR     73  66  78 CALM      30.03R

$$

MDZ006>007-011-014-270300-
BALTIMORE METRO

CITY           SKY/WX    TMP DP  RH WIND       PRES   REMARKS
BWI AIRPORT    MOCLDY    76  63  64 SE5       30.03R
MD SCIENCE CTR   N/A     79  62  56 MISG      30.04R
MARTIN STATE   PTCLDY    77  68  73 SE9       30.04R
ANNAPOLIS      CLEAR     74  64  71 S13       30.04R
FORT MEADE*    PTCLDY    70  64  83 SE3       30.05S

$$

MDZ012-015-019>023-270300-
MARYLAND EASTERN SHORE

CITY           SKY/WX    TMP DP  RH WIND       PRES   REMARKS
OCEAN CITY     CLEAR     71  62  73 SW8       30.10R
SALISBURY      CLEAR     73  61  65 S8        30.08S
BAY BRIDGE AP* CLEAR     77  64  65 S14       30.04R
CAMBRIDGE*     CLEAR     73  64  73 S8        30.06S
EASTON*        CLEAR     79  68  69 S10G16    30.09R

$$

MDZ017>025-270300-
SOUTHERN MARYLAND

CITY           SKY/WX    TMP DP  RH WIND       PRES   REMARKS
PATUXENT RIVER PTCLDY    77  60  55 S7        30.05R
ST INIGOES     CLEAR     76  65  68 SE9       30.05R
LEONARDTOWN*   CLEAR     75  61  60 SE6       30.07R

$$

MDZ003>005-270300-
NORTH CENTRAL MARYLAND

CITY           SKY/WX    TMP DP  RH WIND       PRES   REMARKS
FREDERICK*     MOCLDY    75  68  78 CALM      30.05R
HAGERSTOWN APT PTCLDY    78  63  59 SW5       30.03R
WESTMINSTER*   PTCLDY    79  75  89 S5        30.05R

$$

MDZ501>502-270300-
WESTERN MARYLAND

CITY           SKY/WX    TMP DP  RH WIND       PRES   REMARKS
OAKLAND*       CLOUDY    66  57  72 SW5       30.14R
CUMBERLAND*    PTCLDY    70  70 100 N3        30.10R

$$

VAZ025>031-270300-
SHENANDOAH VALLEY

CITY           SKY/WX    TMP DP  RH WIND       PRES   REMARKS
WINCHESTER*    MOCLDY    70  68  94 CALM      30.05R
FRONT ROYAL*   CLOUDY    72  66  83 CALM      30.05R
LURAY*         MOCLDY    75  63  64 SW7       30.06S
NEW MARKET*    MOCLDY    68  64  89 CALM      30.06R
STAUNTON*      MOCLDY    69  63  81 S3        30.11R
WAYNESBORO*    CLOUDY    73  61  67 SW6       30.11R

$$

WVZ021-048>050-054>055-270300-
EASTERN WEST VIRGINIA PANHANDLE

CITY           SKY/WX    TMP DP  RH WIND       PRES   REMARKS
MARTINSBURG    FAIR      72  64  76 SW3       30.03R
PETERSBURG*    MOCLDY    69  68  96 CALM      30.07S

$$

VAZ036>039-050-270300-
CENTRAL FOOTHILLS

CITY           SKY/WX    TMP DP  RH WIND       PRES   REMARKS
CHARLOTTESVILL FAIR      75  63  66 SW3       30.06R
CULPEPER*      FAIR      72  68  87 SW3       30.05R
ORANGE*        FAIR      73  64  73 CALM      30.07R
GORDONSVILLE*  FAIR      71  67  89 CALM      30.05R
WARRENTON*     FAIR      73  62  69 SE3       30.04R

$$

VAZ055>057-270300-
NORTH AND CENTRAL PIEDMONT

CITY           SKY/WX    TMP DP  RH WIND       PRES   REMARKS
FREDERICKSBRG* NOT AVBL
STAFFORD*      FAIR      70  66  86 CALM      30.08R

$$

NCZ024-NYZ072-PAZ021-071-VAZ022-071-270300-
OTHER REGIONAL OBSERVATIONS

CITY           SKY/WX    TMP DP  RH WIND       PRES   REMARKS
NEW YORK CITY  PTCLDY    76  50  40 VRB3      30.07S
PHILADELPHIA   PTCLDY    76  55  48 SE6       30.05R
PITTSBURGH     PTCLDY    73  62  68 S5        30.03R
ROANOKE        MOCLDY    73  67  81 E5        30.12R
RICHMOND       FAIR      73  64  73 S7        30.06R
RALEIGH        PTCLDY    77  62  59 S3        30.11R

$$

ANZ530>537-270300-
MARINE OBSERVATIONS

STATION/POSITION TIME  TEMP    WIND        PRES
                       AIR SEA DIR/SP/G
                 (UTC) (F)     (DEG/KT/KT) (MB)
THOMAS PT LIGHT  0200   74 66  160/ 17/ 18 1018.4R
BALT KEY BRIDGE  0100                      1016.2R
COVE POINT       0100                      1017.8R
LEWISETTA        0100                      1017.2R
SOLOMONS ISLAND  0112      67                N/A
PINEY POINT      0100          180/ 11/ 12   N/A

$$





USA.gov is the U.S. government's official web portal to all federal, state and local government web resources and services.